Location: Bald Rock
(37.3738°N, 119.9354°W)
Time: 12:33:30
(UTC+00:00)

Daily predictions for brighter satellites

Satellite Brightness Start Highest point End
(mag) Time Altitude Azimuth Time Altitude Azimuth Time Altitude Azimuth
IRAS Rocket 4.3 12:00:53 10° N 12:06:22 61° WNW 12:09:48 23° SW
Cosmos 1544 Rocket 3.8 12:05:54 40° WSW 12:06:42 45° W 12:10:53 10° N
SL-08 R/B 4.4 12:00:18 10° N 12:06:43 76° W 12:13:01 10° S
Cosmos 2237 4.2 12:04:30 10° NNW 12:10:03 56° WSW 12:15:34 10° S
IRS-1D 3.5 12:05:26 10° N 12:10:45 78° WNW 12:15:43 12° SSW
Cosmos 1833 4.2 12:10:47 16° SSW 12:15:25 86° WNW 12:21:11 10° NNE
Cosmos 1821 Rocket 4.4 12:10:56 10° NNW 12:16:28 38° W 12:21:59 10° SSW
Cosmos 1339 Rocket 4.3 12:13:07 10° SSW 12:19:10 72° W 12:25:14 10° N
Cosmos 1190 Rocket 3.9 12:16:38 18° SSW 12:20:28 66° WNW 12:25:38 10° NNE
Cosmos 540 Rocket 4.1 12:16:28 10° N 12:21:31 58° ENE 12:26:32 10° SSE
Cosmos 1763 Rocket 3.5 12:20:15 10° NNW 12:25:24 88° ENE 12:30:36 10° SSE
Lacrosse 5 rocket 3.7 12:24:14 10° SSE 12:26:10 14° ESE 12:28:06 10° E
SL-16 R/B 4.0 12:28:59 16° W 12:28:59 16° W 12:32:00 10° NW
Okean 1-7 Rocket 3.5 12:25:14 10° NNW 12:29:42 72° W 12:34:05 10° S
GP-B 4.5 12:29:28 10° SSE 12:33:36 42° E 12:37:45 10° NNE
Cosmos 1825 Rocket 4.2 12:30:36 10° N 12:34:59 58° E 12:39:19 10° SSE
Cosmos 1606 Rocket 3.5 12:31:04 10° S 12:35:22 89° W 12:39:44 10° N
Cosmos 2360 Rocket 2.2 12:29:44 10° NNW 12:35:23 90° SE 12:40:59 10° SSE
Cosmos 676 Rocket 3.9 12:30:43 10° SSW 12:35:52 82° WNW 12:41:04 10° NNE
Cosmos 1812 2.5 12:33:30 10° S 12:37:01 85° E 12:40:32 10° N
NOSS 3-2 (A) 3.0 12:35:02 10° SSW 12:40:01 85° WNW 12:45:49 10° NNE
YAOGAN 6 4.1 12:38:40 10° NW 12:40:27 14° WNW 12:40:27 14° WNW
CBERS-1 4.3 12:35:40 10° NNE 12:40:46 73° ESE 12:45:50 10° S
COSMOS 2455 3.6 12:37:47 16° WSW 12:41:51 34° NW 12:47:18 10° N
Cosmos 2322 Rocket 2.2 12:38:31 10° NNW 12:44:06 59° WSW 12:49:36 10° S
Cosmos 2151 3.9 12:42:04 10° N 12:46:06 52° E 12:50:07 10° SSE
Cosmos 1605 Rocket 4.1 12:40:12 10° N 12:46:31 83° E 12:52:41 10° S
CZ-2C R/B 3.7 12:45:29 10° NNW 12:49:00 20° WNW 12:51:54 12° WSW
ISS -2.3 12:47:57 15° W 12:49:32 20° SW 12:52:07 10° S
ATLAS 5 CENTAUR R/B 2.0 12:46:39 10° S 12:49:41 41° ESE 12:52:49 10° NE
JB-3 4.1 12:46:24 10° S 12:50:11 79° WSW 12:54:04 10° NNW
Cosmos 2333 Rocket 2.2 12:45:38 10° NNW 12:51:19 68° WSW 12:56:56 10° S
Cosmos 2219 Rocket 2.6 12:50:50 10° NNW 12:56:29 70° ENE 13:02:03 10° SSE
Cosmos 1535 Rocket 4.5 12:50:42 10° NNW 12:56:56 68° W 13:03:03 10° S
Cosmos 1862 4.4 12:54:17 10° NW 12:57:09 21° W 13:00:00 10° SW
CENTAUR R/B 3.0 12:52:15 11° WSW 12:57:11 40° NW 13:03:29 10° NNE
ARGOS 3.1 12:53:23 10° N 12:58:45 83° WNW 13:04:06 10° SSW
Cosmos 1602 Rocket 4.4 12:56:45 10° NNW 13:00:37 30° W 13:04:28 10° SSW
H-2A R/B 3.1 12:59:42 10° NNE 13:02:35 50° E 13:05:27 10° S
SL-16 R/B 3.2 12:59:12 10° NW 13:03:32 23° W 13:07:52 10° SSW
SJ 16-02 2.8 13:02:14 10° S 13:06:19 41° ESE 13:10:24 10° NNE
H-2A R/B 3.0 13:03:10 10° N 13:07:43 29° WNW 13:12:19 10° SW
USA 215 3.3 13:01:56 10° SE 13:08:27 69° SW 13:14:59 10° NW
Cosmos 1378 4.4 13:06:33 10° SSE 13:09:27 37° E 13:12:21 10° NNE
Cosmos 968 Rocket 4.3 13:05:21 10° S 13:10:25 56° ESE 13:15:29 10° NNE
Cosmos 1939 Rocket 3.5 13:06:48 10° N 13:10:26 35° WNW 13:14:03 10° SW
Cosmos 1867 3.8 13:06:03 10° SW 13:11:23 56° WNW 13:16:47 10° NNE
Cosmos 2084 3.9 13:07:27 10° SW 13:11:28 41° NW 13:15:20 10° NNE
SeaSat 1 4.1 13:10:50 10° SW 13:12:38 12° WSW 13:14:26 10° W
SKYMED 2 3.8 13:10:58 10° SSE 13:15:17 77° ENE 13:19:39 10° N
CZ-3 R/B 3.1 13:08:29 10° WSW 13:25:09 45° S 13:30:48 10° ESE
